PGT751 LTFJ-DAAG

Flight info

Callsign PGT751
Flight time 3h 31m
Altitude 36000
Route BARPE UG12 GOLDO DCT AMALA DCT AGISA DCT GARTA DCT RUTOM DCT SONAK UR781 TUC UA411 BJA UJ7 LIMON UM986 ZEM
Aircraft B738/M-SDE2E3FGIRWXY/LB1

Departure

Time 2026-05-01 08:25
Airport Istanbul Sabiha Gökçen International Airport (LTFJ)

Arrival

Time 2026-05-01 11:56
Airport Houari Boumediene Airport (DAAG)
Time Latitude Longitude Altitude Speed Heading
2026-05-01 07:58 40.90297 29.30813 320 ft 0 kts 334°
2026-05-01 08:04 40.90297 29.30814 320 ft 0 kts 334°
2026-05-01 08:10 40.90261 29.30837 318 ft 4 kts 334°
2026-05-01 08:11 40.90243 29.30863 319 ft 2 kts 266°
2026-05-01 08:11 40.90249 29.30891 318 ft 2 kts 246°
2026-05-01 08:12 40.90251 29.30897 319 ft 0 kts 245°
2026-05-01 08:14 40.90241 29.30880 318 ft 4 kts 216°
2026-05-01 08:14 40.90200 29.30883 320 ft 8 kts 158°
2026-05-01 08:14 40.90166 29.30904 320 ft 0 kts 154°
2026-05-01 08:15 40.90121 29.30931 320 ft 10 kts 158°
2026-05-01 08:15 40.90062 29.30907 320 ft 10 kts 233°
2026-05-01 08:16 40.90032 29.30830 320 ft 9 kts 244°
2026-05-01 08:16 40.89996 29.30733 320 ft 15 kts 244°
2026-05-01 08:16 40.89939 29.30576 320 ft 22 kts 244°
2026-05-01 08:16 40.89874 29.30399 319 ft 21 kts 244°
2026-05-01 08:17 40.89812 29.30228 319 ft 20 kts 244°
2026-05-01 08:17 40.89750 29.30063 320 ft 20 kts 244°
2026-05-01 08:17 40.89691 29.29903 320 ft 19 kts 244°
2026-05-01 08:17 40.89634 29.29748 320 ft 18 kts 244°
2026-05-01 08:18 40.89579 29.29598 320 ft 18 kts 244°
2026-05-01 08:18 40.89477 29.29320 320 ft 10 kts 245°
2026-05-01 08:19 40.89459 29.29280 318 ft 0 kts 227°
2026-05-01 08:20 40.89444 29.29264 320 ft 6 kts 213°
2026-05-01 08:20 40.89384 29.29257 319 ft 10 kts 156°
2026-05-01 08:20 40.89349 29.29280 319 ft 0 kts 154°
2026-05-01 08:22 40.89334 29.29290 319 ft 6 kts 153°
2026-05-01 08:22 40.89288 29.29321 321 ft 7 kts 152°
2026-05-01 08:22 40.89282 29.29362 321 ft 0 kts 63°
2026-05-01 08:24 40.89350 29.29547 321 ft 54 kts 64°
2026-05-01 08:24 40.89607 29.30245 321 ft 115 kts 64°
2026-05-01 08:25 40.90028 29.31402 378 ft 159 kts 62°
2026-05-01 08:25 40.90347 29.32284 893 ft 153 kts 62°
2026-05-01 08:25 40.90977 29.33996 1804 ft 167 kts 60°
2026-05-01 08:25 40.91533 29.35498 2078 ft 195 kts 61°
2026-05-01 08:26 40.92163 29.37210 2318 ft 217 kts 60°
2026-05-01 08:26 40.92801 29.39065 2894 ft 227 kts 71°
2026-05-01 08:26 40.92855 29.41181 3659 ft 238 kts 98°
2026-05-01 08:26 40.92117 29.43172 4321 ft 257 kts 127°
2026-05-01 08:27 40.90695 29.44677 5066 ft 269 kts 147°
2026-05-01 08:27 40.89011 29.45789 5907 ft 272 kts 152°
2026-05-01 08:27 40.87282 29.46840 6700 ft 276 kts 153°
2026-05-01 08:27 40.85530 29.47865 7482 ft 280 kts 161°
2026-05-01 08:28 40.83582 29.48050 8255 ft 284 kts 191°
2026-05-01 08:28 40.81787 29.46997 9059 ft 285 kts 218°
2026-05-01 08:28 40.80301 29.45286 9919 ft 283 kts 223°
2026-05-01 08:28 40.78870 29.43503 10471 ft 293 kts 224°
2026-05-01 08:29 40.77342 29.41589 10636 ft 316 kts 224°
2026-05-01 08:29 40.75675 29.39530 10798 ft 338 kts 224°
2026-05-01 08:29 40.73909 29.37379 11255 ft 349 kts 224°
2026-05-01 08:29 40.72153 29.35161 11883 ft 352 kts 231°
2026-05-01 08:30 40.70931 29.32375 12258 ft 356 kts 253°
2026-05-01 08:30 40.70570 29.29175 12558 ft 356 kts 271°
2026-05-01 08:30 40.70782 29.27028 12710 ft 357 kts 283°
2026-05-01 08:30 40.71517 29.23924 12994 ft 354 kts 288°
2026-05-01 08:31 40.72570 29.19830 13713 ft 356 kts 287°
2026-05-01 08:31 40.73345 29.16726 14254 ft 360 kts 287°
2026-05-01 08:31 40.74119 29.13559 14484 ft 364 kts 286°
2026-05-01 08:31 40.74885 29.10389 14729 ft 360 kts 286°
2026-05-01 08:32 40.75641 29.07249 14964 ft 360 kts 286°
2026-05-01 08:32 40.76146 29.05150 15224 ft 364 kts 286°
2026-05-01 08:32 40.76903 29.01964 15922 ft 363 kts 284°
2026-05-01 08:32 40.77322 28.98705 16670 ft 360 kts 273°
2026-05-01 08:33 40.77523 28.94338 17577 ft 361 kts 272°
2026-05-01 08:33 40.77668 28.91015 18212 ft 364 kts 272°
2026-05-01 08:33 40.77837 28.87681 18783 ft 366 kts 272°
2026-05-01 08:33 40.78024 28.84319 19302 ft 368 kts 272°
2026-05-01 08:34 40.78153 28.82082 19638 ft 370 kts 272°
2026-05-01 08:34 40.78349 28.78687 20159 ft 372 kts 272°
2026-05-01 08:34 40.78545 28.75254 20465 ft 378 kts 271°
2026-05-01 08:34 40.78741 28.71788 20720 ft 379 kts 271°
2026-05-01 08:35 40.79001 28.67211 21050 ft 376 kts 271°
2026-05-01 08:35 40.79132 28.64877 21271 ft 379 kts 271°
2026-05-01 08:35 40.79325 28.61394 21794 ft 381 kts 271°
2026-05-01 08:35 40.79471 28.57958 22364 ft 379 kts 267°
2026-05-01 08:36 40.79408 28.54480 22858 ft 380 kts 264°
2026-05-01 08:36 40.79250 28.51003 23330 ft 382 kts 263°
2026-05-01 08:36 40.79075 28.47476 23792 ft 384 kts 263°
2026-05-01 08:36 40.78913 28.43941 24175 ft 386 kts 263°
2026-05-01 08:37 40.78766 28.40391 24590 ft 389 kts 264°
2026-05-01 08:37 40.78630 28.36812 24972 ft 392 kts 264°
2026-05-01 08:37 40.78499 28.33218 25338 ft 394 kts 264°
2026-05-01 08:37 40.78369 28.29643 25671 ft 397 kts 264°
2026-05-01 08:38 40.78233 28.25993 25995 ft 399 kts 264°
2026-05-01 08:38 40.78185 28.22314 26322 ft 403 kts 267°
2026-05-01 08:38 40.78291 28.18625 26647 ft 406 kts 269°
2026-05-01 08:38 40.78453 28.14875 26971 ft 408 kts 269°
2026-05-01 08:39 40.78615 28.11190 27278 ft 410 kts 269°
2026-05-01 08:39 40.78770 28.07361 27587 ft 412 kts 269°
2026-05-01 08:39 40.78907 28.03623 27899 ft 414 kts 269°
2026-05-01 08:39 40.79035 27.99819 28206 ft 417 kts 269°
2026-05-01 08:40 40.79283 27.92139 28848 ft 419 kts 269°
2026-05-01 08:40 40.79405 27.88304 29283 ft 418 kts 269°
2026-05-01 08:40 40.79484 27.84480 29773 ft 415 kts 267°
2026-05-01 08:41 40.79512 27.80680 30214 ft 414 kts 267°
2026-05-01 08:41 40.79536 27.76890 30530 ft 413 kts 267°
2026-05-01 08:41 40.79566 27.73143 30814 ft 414 kts 267°
2026-05-01 08:41 40.79601 27.69347 31120 ft 413 kts 268°
2026-05-01 08:42 40.79637 27.65560 31455 ft 413 kts 268°
2026-05-01 08:42 40.79673 27.61775 31765 ft 412 kts 269°
2026-05-01 08:42 40.80032 27.58011 32007 ft 419 kts 281°
2026-05-01 08:42 40.80822 27.54309 32326 ft 419 kts 282°
2026-05-01 08:43 40.81615 27.50693 32641 ft 418 kts 282°
2026-05-01 08:43 40.82432 27.46940 32920 ft 418 kts 282°
2026-05-01 08:43 40.83223 27.43245 33173 ft 418 kts 282°
2026-05-01 08:43 40.84002 27.39553 33431 ft 418 kts 282°
2026-05-01 08:44 40.84764 27.35908 33770 ft 416 kts 282°
2026-05-01 08:44 40.85527 27.32233 34035 ft 414 kts 282°
2026-05-01 08:44 40.86286 27.28568 34204 ft 413 kts 282°
2026-05-01 08:44 40.87041 27.24910 34190 ft 412 kts 282°
2026-05-01 08:45 40.88538 27.17623 34152 ft 411 kts 282°
2026-05-01 08:45 40.90030 27.10365 34202 ft 409 kts 282°
2026-05-01 08:46 40.91506 27.03168 34206 ft 408 kts 282°
2026-05-01 08:46 40.92579 26.95852 34208 ft 403 kts 266°
2026-05-01 08:47 40.92155 26.88477 34213 ft 402 kts 264°
2026-05-01 08:47 40.91663 26.81146 34222 ft 404 kts 264°
2026-05-01 08:48 40.91199 26.73736 34218 ft 405 kts 264°
2026-05-01 08:48 40.90751 26.66299 34224 ft 407 kts 265°
2026-05-01 08:49 40.90303 26.58831 34220 ft 408 kts 265°
2026-05-01 08:49 40.89851 26.51405 34225 ft 409 kts 265°
2026-05-01 08:50 40.89390 26.43903 34224 ft 410 kts 265°
2026-05-01 08:50 40.88924 26.36398 34226 ft 410 kts 265°
2026-05-01 08:51 40.88453 26.28887 34224 ft 410 kts 265°
2026-05-01 08:51 40.87552 26.21524 34232 ft 409 kts 255°
2026-05-01 08:52 40.85970 26.14311 34238 ft 409 kts 255°
2026-05-01 08:52 40.84385 26.07103 34238 ft 408 kts 255°
2026-05-01 08:53 40.82819 25.99911 34236 ft 408 kts 255°
2026-05-01 08:53 40.81257 25.92716 34235 ft 407 kts 255°
2026-05-01 08:54 40.79706 25.85583 34243 ft 407 kts 255°
2026-05-01 08:54 40.78141 25.78408 34234 ft 407 kts 255°
2026-05-01 08:55 40.76572 25.71244 34235 ft 406 kts 255°
2026-05-01 08:55 40.75012 25.64140 34232 ft 406 kts 255°
2026-05-01 08:56 40.73437 25.56992 34234 ft 406 kts 255°
2026-05-01 08:56 40.71856 25.49842 34235 ft 406 kts 255°
2026-05-01 08:57 40.70273 25.42704 34236 ft 406 kts 255°
2026-05-01 08:57 40.68693 25.35606 34237 ft 406 kts 255°
2026-05-01 08:58 40.67099 25.28462 34235 ft 407 kts 255°
2026-05-01 08:58 40.65499 25.21318 34236 ft 407 kts 255°
2026-05-01 08:59 40.63894 25.14174 34237 ft 407 kts 255°
2026-05-01 08:59 40.62285 25.07035 34241 ft 407 kts 255°
2026-05-01 09:00 40.60680 24.99934 34238 ft 407 kts 255°
2026-05-01 09:00 40.59063 24.92801 34236 ft 407 kts 255°
2026-05-01 09:01 40.57397 24.85689 34231 ft 407 kts 251°
2026-05-01 09:01 40.54717 24.79166 34237 ft 412 kts 238°
2026-05-01 09:02 40.51333 24.73094 34235 ft 412 kts 237°
2026-05-01 09:02 40.47947 24.67039 34234 ft 411 kts 238°
2026-05-01 09:03 40.44579 24.60983 34237 ft 410 kts 238°
2026-05-01 09:03 40.41227 24.54942 34237 ft 409 kts 238°
2026-05-01 09:04 40.37900 24.48949 34238 ft 409 kts 238°
2026-05-01 09:04 40.34553 24.42931 34237 ft 408 kts 238°
2026-05-01 09:05 40.31212 24.36937 34237 ft 407 kts 238°
2026-05-01 09:05 40.27873 24.30958 34234 ft 406 kts 238°
2026-05-01 09:06 40.24559 24.25035 34241 ft 406 kts 238°
2026-05-01 09:06 40.21222 24.19082 34232 ft 406 kts 238°
2026-05-01 09:07 40.18989 24.15104 34231 ft 405 kts 238°
2026-05-01 09:07 40.14554 24.07221 34235 ft 404 kts 238°
2026-05-01 09:08 40.11250 24.01361 34234 ft 403 kts 238°
2026-05-01 09:08 40.07925 23.95473 34239 ft 402 kts 238°
2026-05-01 09:09 40.04605 23.89605 34242 ft 401 kts 238°
2026-05-01 09:09 40.01289 23.83756 34236 ft 401 kts 238°
2026-05-01 09:10 39.97964 23.77900 34240 ft 403 kts 238°
2026-05-01 09:10 39.94621 23.72020 34435 ft 408 kts 238°
2026-05-01 09:11 39.92929 23.69051 34666 ft 408 kts 238°
2026-05-01 09:11 39.91235 23.66083 34859 ft 408 kts 238°
2026-05-01 09:11 39.89542 23.63119 35044 ft 408 kts 238°
2026-05-01 09:11 39.87845 23.60148 35233 ft 408 kts 238°
2026-05-01 09:12 39.86151 23.57187 35415 ft 409 kts 238°
2026-05-01 09:12 39.84474 23.54257 35597 ft 409 kts 238°
2026-05-01 09:12 39.82775 23.51290 35765 ft 410 kts 238°
2026-05-01 09:12 39.81069 23.48316 35951 ft 410 kts 238°
2026-05-01 09:13 39.79366 23.45348 36119 ft 410 kts 238°
2026-05-01 09:13 39.77661 23.42380 36226 ft 410 kts 238°
2026-05-01 09:13 39.74249 23.36397 36232 ft 411 kts 242°
2026-05-01 09:14 39.71755 23.29912 36242 ft 400 kts 252°
2026-05-01 09:14 39.69759 23.23185 36237 ft 399 kts 252°
2026-05-01 09:15 39.67755 23.16488 36232 ft 398 kts 252°
2026-05-01 09:15 39.65841 23.09764 36232 ft 396 kts 255°
2026-05-01 09:16 39.64131 23.02975 36228 ft 396 kts 255°
2026-05-01 09:17 39.61566 22.92803 36238 ft 398 kts 255°
2026-05-01 09:17 39.59516 22.84838 36239 ft 399 kts 255°
2026-05-01 09:18 39.56262 22.72315 36239 ft 402 kts 255°
2026-05-01 09:19 39.53583 22.62061 36236 ft 402 kts 255°
2026-05-01 09:20 39.50884 22.51778 36227 ft 401 kts 255°
2026-05-01 09:21 39.47305 22.38200 36223 ft 398 kts 255°
2026-05-01 09:21 39.44620 22.28063 36224 ft 396 kts 255°
2026-05-01 09:22 39.41050 22.14645 36223 ft 393 kts 255°
2026-05-01 09:23 39.38393 22.04703 36220 ft 391 kts 255°
2026-05-01 09:24 39.35724 21.94757 36221 ft 390 kts 255°
2026-05-01 09:25 39.32168 21.81565 36212 ft 390 kts 255°
2026-05-01 09:26 39.29479 21.71634 36205 ft 391 kts 255°
2026-05-01 09:26 39.26775 21.61690 36185 ft 392 kts 255°
2026-05-01 09:27 39.24057 21.51730 36164 ft 394 kts 255°
2026-05-01 09:28 39.22245 21.45116 36168 ft 393 kts 255°
2026-05-01 09:28 39.20421 21.38470 36133 ft 393 kts 255°
2026-05-01 09:29 39.17683 21.28532 36109 ft 391 kts 255°
2026-05-01 09:30 39.14949 21.18645 36099 ft 390 kts 255°
2026-05-01 09:30 39.12234 21.08863 36089 ft 387 kts 255°
2026-05-01 09:31 39.10418 21.02341 36079 ft 386 kts 255°
2026-05-01 09:32 39.07706 20.92631 36082 ft 385 kts 255°
2026-05-01 09:32 39.04979 20.82902 36075 ft 385 kts 255°
2026-05-01 09:33 39.03157 20.76423 36073 ft 385 kts 255°
2026-05-01 09:34 39.00419 20.66714 36071 ft 385 kts 255°
2026-05-01 09:34 38.97683 20.57051 36079 ft 385 kts 255°
2026-05-01 09:35 38.94925 20.47343 36071 ft 386 kts 255°
2026-05-01 09:36 38.93081 20.40876 36082 ft 386 kts 255°
2026-05-01 09:36 38.91244 20.34446 36072 ft 386 kts 255°
2026-05-01 09:37 38.89390 20.27976 36071 ft 386 kts 255°
2026-05-01 09:37 38.86603 20.18275 36067 ft 386 kts 255°
2026-05-01 09:38 38.83825 20.08644 36065 ft 385 kts 255°
2026-05-01 09:39 38.81034 19.99000 36063 ft 384 kts 255°
2026-05-01 09:39 38.79170 19.92579 36067 ft 384 kts 255°
2026-05-01 09:40 38.76391 19.83032 36067 ft 383 kts 255°
2026-05-01 09:41 38.74527 19.76649 36068 ft 382 kts 255°
2026-05-01 09:41 38.71732 19.67107 36062 ft 381 kts 255°
2026-05-01 09:42 38.69866 19.60754 36064 ft 381 kts 255°
2026-05-01 09:43 38.66145 19.48132 36070 ft 380 kts 255°
2026-05-01 09:43 38.64280 19.41830 36056 ft 374 kts 255°
2026-05-01 09:44 38.61563 19.32683 36069 ft 364 kts 255°
2026-05-01 09:45 38.59783 19.26690 36072 ft 362 kts 255°
2026-05-01 09:45 38.57098 19.17686 36089 ft 361 kts 255°
2026-05-01 09:46 38.55308 19.11695 36086 ft 361 kts 255°
2026-05-01 09:46 38.53520 19.05728 36094 ft 363 kts 255°
2026-05-01 09:47 38.51731 18.99694 36087 ft 363 kts 257°
2026-05-01 09:47 38.50350 18.93511 36093 ft 363 kts 259°
2026-05-01 09:48 38.49022 18.87277 36096 ft 365 kts 259°
2026-05-01 09:48 38.47690 18.81069 36102 ft 366 kts 259°
2026-05-01 09:49 38.46331 18.74793 36101 ft 368 kts 259°
2026-05-01 09:49 38.44961 18.68502 36101 ft 368 kts 259°
2026-05-01 09:50 38.43582 18.62199 36106 ft 369 kts 259°
2026-05-01 09:50 38.42200 18.55905 36108 ft 368 kts 259°
2026-05-01 09:51 38.40827 18.49668 36110 ft 367 kts 259°
2026-05-01 09:51 38.39447 18.43414 36117 ft 366 kts 259°
2026-05-01 09:52 38.38064 18.37167 36115 ft 365 kts 259°
2026-05-01 09:52 38.36684 18.30947 36121 ft 364 kts 259°
2026-05-01 09:53 38.35311 18.24777 36120 ft 364 kts 259°
2026-05-01 09:53 38.33929 18.18579 36122 ft 364 kts 259°
2026-05-01 09:54 38.32534 18.12338 36135 ft 370 kts 258°
2026-05-01 09:54 38.31108 18.05970 36137 ft 377 kts 258°
2026-05-01 09:55 38.29659 17.99532 36128 ft 380 kts 258°
2026-05-01 09:55 38.28206 17.93099 36131 ft 381 kts 258°
2026-05-01 09:56 38.26739 17.86620 36136 ft 381 kts 258°
2026-05-01 09:56 38.25268 17.80141 36130 ft 380 kts 258°
2026-05-01 09:57 38.23801 17.73697 36133 ft 378 kts 258°
2026-05-01 09:57 38.22347 17.67328 36131 ft 377 kts 258°
2026-05-01 09:58 38.20886 17.60944 36133 ft 375 kts 258°
2026-05-01 09:58 38.19429 17.54594 36141 ft 374 kts 258°
2026-05-01 09:59 38.17972 17.48258 36142 ft 373 kts 258°
2026-05-01 09:59 38.16513 17.41931 36149 ft 373 kts 258°
2026-05-01 10:00 38.15058 17.35640 36149 ft 374 kts 258°
2026-05-01 10:00 38.13585 17.29289 36149 ft 376 kts 258°
2026-05-01 10:01 38.12103 17.22914 36148 ft 377 kts 258°
2026-05-01 10:01 38.10610 17.16511 36152 ft 379 kts 258°
2026-05-01 10:02 38.09117 17.10129 36153 ft 380 kts 258°
2026-05-01 10:02 38.07607 17.03690 36148 ft 381 kts 258°
2026-05-01 10:03 38.06094 16.97264 36142 ft 378 kts 258°
2026-05-01 10:03 38.04592 16.90899 36151 ft 375 kts 258°
2026-05-01 10:04 38.03108 16.84623 36142 ft 373 kts 258°
2026-05-01 10:04 38.01617 16.78333 36145 ft 372 kts 258°
2026-05-01 10:05 38.00127 16.72060 36159 ft 373 kts 258°
2026-05-01 10:05 37.98625 16.65750 36159 ft 375 kts 257°
2026-05-01 10:06 37.97108 16.59398 36165 ft 378 kts 257°
2026-05-01 10:06 37.95587 16.53051 36160 ft 380 kts 257°
2026-05-01 10:07 37.94042 16.46615 36161 ft 383 kts 257°
2026-05-01 10:07 37.92484 16.40147 36160 ft 385 kts 257°
2026-05-01 10:08 37.90134 16.30426 36169 ft 387 kts 257°
2026-05-01 10:09 37.88555 16.23918 36156 ft 387 kts 257°
2026-05-01 10:09 37.86971 16.17405 36155 ft 386 kts 257°
2026-05-01 10:10 37.85390 16.10924 36155 ft 385 kts 257°
2026-05-01 10:10 37.83032 16.01287 36155 ft 383 kts 257°
2026-05-01 10:11 37.81456 15.94863 36161 ft 382 kts 257°
2026-05-01 10:11 37.79881 15.88462 36159 ft 381 kts 257°
2026-05-01 10:12 37.78330 15.82175 36161 ft 380 kts 257°
2026-05-01 10:13 37.75955 15.72577 36173 ft 384 kts 257°
2026-05-01 10:13 37.74340 15.66060 36170 ft 392 kts 257°
2026-05-01 10:14 37.71868 15.56139 36159 ft 397 kts 257°
2026-05-01 10:14 37.70213 15.49527 36156 ft 398 kts 257°
2026-05-01 10:15 37.68544 15.42873 36159 ft 397 kts 257°
2026-05-01 10:15 37.66874 15.36230 36149 ft 396 kts 257°
2026-05-01 10:16 37.65219 15.29668 36148 ft 394 kts 257°
2026-05-01 10:17 37.62728 15.19817 36144 ft 392 kts 257°
2026-05-01 10:17 37.60244 15.10034 36151 ft 389 kts 256°
2026-05-01 10:18 37.57780 15.00364 36156 ft 388 kts 256°
2026-05-01 10:19 37.56126 14.93889 36152 ft 389 kts 256°
2026-05-01 10:19 37.54462 14.87396 36176 ft 390 kts 256°
2026-05-01 10:20 37.51946 14.77607 36174 ft 393 kts 256°
2026-05-01 10:20 37.50266 14.71099 36169 ft 394 kts 256°
2026-05-01 10:21 37.47707 14.61211 36142 ft 398 kts 256°
2026-05-01 10:22 37.45150 14.51374 36136 ft 396 kts 256°
2026-05-01 10:23 37.42570 14.41483 36116 ft 395 kts 256°
2026-05-01 10:23 37.40002 14.31677 36124 ft 393 kts 256°
2026-05-01 10:24 37.36588 14.18697 36125 ft 392 kts 256°
2026-05-01 10:25 37.33154 14.05706 36124 ft 392 kts 256°
2026-05-01 10:26 37.31443 13.99256 36141 ft 392 kts 256°
2026-05-01 10:27 37.27975 13.86235 36140 ft 394 kts 256°
2026-05-01 10:28 37.25355 13.76444 36139 ft 395 kts 255°
2026-05-01 10:28 37.22733 13.66680 36142 ft 396 kts 255°
2026-05-01 10:29 37.20082 13.56844 36141 ft 397 kts 255°
2026-05-01 10:30 37.16540 13.43760 36147 ft 398 kts 255°
2026-05-01 10:31 37.12969 13.30639 36149 ft 398 kts 255°
2026-05-01 10:32 37.10279 13.20793 36150 ft 398 kts 255°
2026-05-01 10:33 37.06692 13.07725 36149 ft 399 kts 255°
2026-05-01 10:34 37.03976 12.97873 36056 ft 399 kts 255°
2026-05-01 10:34 37.03072 12.94601 35768 ft 396 kts 255°
2026-05-01 10:34 37.02186 12.91406 35524 ft 392 kts 255°
2026-05-01 10:35 37.00402 12.84969 35051 ft 393 kts 255°
2026-05-01 10:35 36.99506 12.81737 34809 ft 394 kts 255°
2026-05-01 10:35 36.98604 12.78491 34575 ft 395 kts 255°
2026-05-01 10:35 36.97701 12.75243 34337 ft 396 kts 255°
2026-05-01 10:36 36.95878 12.68702 34175 ft 400 kts 255°
2026-05-01 10:36 36.94976 12.65476 34159 ft 399 kts 255°
2026-05-01 10:37 36.93149 12.58954 34147 ft 396 kts 255°
2026-05-01 10:37 36.90411 12.49202 34155 ft 397 kts 255°
2026-05-01 10:38 36.88580 12.42697 34160 ft 397 kts 255°
2026-05-01 10:38 36.86757 12.36239 34158 ft 397 kts 255°
2026-05-01 10:39 36.84914 12.29724 34156 ft 398 kts 255°
2026-05-01 10:39 36.83067 12.23213 34158 ft 398 kts 255°
2026-05-01 10:40 36.81212 12.16688 34157 ft 399 kts 255°
2026-05-01 10:40 36.79364 12.10204 34156 ft 399 kts 255°
2026-05-01 10:41 36.77500 12.03677 34156 ft 400 kts 255°
2026-05-01 10:42 36.74695 11.93887 34151 ft 401 kts 254°
2026-05-01 10:42 36.72825 11.87380 34156 ft 401 kts 254°
2026-05-01 10:43 36.70941 11.80839 34158 ft 401 kts 254°
2026-05-01 10:43 36.69054 11.74305 34156 ft 401 kts 254°
2026-05-01 10:44 36.67164 11.67773 34158 ft 401 kts 254°
2026-05-01 10:44 36.65286 11.61292 34151 ft 401 kts 255°
2026-05-01 10:45 36.64357 11.54564 34163 ft 393 kts 271°
2026-05-01 10:45 36.64955 11.47780 34289 ft 398 kts 282°
2026-05-01 10:45 36.65528 11.44394 34475 ft 400 kts 282°
2026-05-01 10:46 36.66109 11.41011 34767 ft 398 kts 282°
2026-05-01 10:46 36.66676 11.37692 35084 ft 396 kts 282°
2026-05-01 10:46 36.67243 11.34337 35340 ft 396 kts 282°
2026-05-01 10:46 36.67805 11.30980 35553 ft 396 kts 282°
2026-05-01 10:47 36.68363 11.27627 35809 ft 395 kts 282°
2026-05-01 10:47 36.68912 11.24301 36083 ft 394 kts 282°
2026-05-01 10:47 36.69466 11.20933 36318 ft 394 kts 282°
2026-05-01 10:47 36.70015 11.17592 36536 ft 394 kts 282°
2026-05-01 10:48 36.70561 11.14257 36785 ft 393 kts 282°
2026-05-01 10:48 36.71105 11.10928 37026 ft 392 kts 281°
2026-05-01 10:48 36.71640 11.07646 37239 ft 392 kts 281°
2026-05-01 10:48 36.72181 11.04325 37446 ft 391 kts 281°
2026-05-01 10:49 36.72722 11.01000 37678 ft 390 kts 281°
2026-05-01 10:49 36.73260 10.97682 37908 ft 390 kts 281°
2026-05-01 10:49 36.73795 10.94379 38108 ft 389 kts 281°
2026-05-01 10:50 36.74867 10.87744 38157 ft 391 kts 281°
2026-05-01 10:50 36.75928 10.81148 38153 ft 390 kts 281°
2026-05-01 10:51 36.76990 10.74522 38158 ft 388 kts 281°
2026-05-01 10:51 36.78044 10.67927 38154 ft 388 kts 281°
2026-05-01 10:52 36.79091 10.61344 38157 ft 387 kts 281°
2026-05-01 10:52 36.80128 10.54805 38161 ft 387 kts 281°
2026-05-01 10:53 36.81168 10.48222 38164 ft 386 kts 281°
2026-05-01 10:53 36.82204 10.41641 38157 ft 387 kts 281°
2026-05-01 10:54 36.83235 10.35060 38158 ft 387 kts 281°
2026-05-01 10:54 36.84260 10.28505 38153 ft 388 kts 281°
2026-05-01 10:55 36.85112 10.21841 38150 ft 389 kts 273°
2026-05-01 10:55 36.85037 10.15075 38154 ft 390 kts 270°
2026-05-01 10:56 36.84915 10.08289 38159 ft 392 kts 270°
2026-05-01 10:56 36.84807 10.01532 38168 ft 392 kts 270°
2026-05-01 10:57 36.84704 9.94713 38150 ft 393 kts 270°
2026-05-01 10:57 36.84600 9.87886 38148 ft 394 kts 270°
2026-05-01 10:58 36.84492 9.81047 38147 ft 394 kts 270°
2026-05-01 10:58 36.84380 9.74257 38164 ft 394 kts 270°
2026-05-01 10:59 36.84264 9.67410 38150 ft 394 kts 270°
2026-05-01 10:59 36.84143 9.60564 38153 ft 394 kts 270°
2026-05-01 11:00 36.84019 9.53728 38157 ft 394 kts 270°
2026-05-01 11:00 36.83892 9.46893 38155 ft 393 kts 270°
2026-05-01 11:01 36.83760 9.40125 38149 ft 393 kts 270°
2026-05-01 11:01 36.83611 9.33319 38144 ft 392 kts 269°
2026-05-01 11:02 36.83459 9.26519 38146 ft 392 kts 269°
2026-05-01 11:02 36.83305 9.19765 38160 ft 392 kts 269°
2026-05-01 11:03 36.83147 9.12966 38154 ft 392 kts 269°
2026-05-01 11:03 36.82964 9.06157 38158 ft 394 kts 269°
2026-05-01 11:04 36.82755 8.99314 38159 ft 396 kts 269°
2026-05-01 11:04 36.82758 8.92481 38160 ft 397 kts 272°
2026-05-01 11:05 36.82944 8.85587 38162 ft 398 kts 272°
2026-05-01 11:05 36.83114 8.78674 38147 ft 398 kts 272°
2026-05-01 11:06 36.83263 8.71759 38163 ft 398 kts 272°
2026-05-01 11:06 36.83402 8.64900 38158 ft 398 kts 272°
2026-05-01 11:07 36.83431 8.54561 38158 ft 396 kts 270°
2026-05-01 11:07 36.83413 8.47700 38155 ft 395 kts 270°
2026-05-01 11:08 36.83402 8.40905 38165 ft 394 kts 270°
2026-05-01 11:09 36.83387 8.30672 38170 ft 392 kts 270°
2026-05-01 11:09 36.83373 8.23859 38176 ft 392 kts 270°
2026-05-01 11:10 36.83345 8.13678 38167 ft 393 kts 270°
2026-05-01 11:10 36.83321 8.06840 38182 ft 394 kts 270°
2026-05-01 11:11 36.83294 7.99984 38180 ft 396 kts 270°
2026-05-01 11:11 36.83262 7.93106 38184 ft 397 kts 270°
2026-05-01 11:12 36.83227 7.86203 38188 ft 398 kts 270°
2026-05-01 11:12 36.83184 7.79323 38184 ft 400 kts 270°
2026-05-01 11:13 36.83116 7.72378 38187 ft 401 kts 269°
2026-05-01 11:13 36.83039 7.65423 38187 ft 402 kts 269°
2026-05-01 11:14 36.82960 7.58443 38183 ft 402 kts 269°
2026-05-01 11:14 36.82879 7.51507 38177 ft 403 kts 269°
2026-05-01 11:15 36.82793 7.44518 38170 ft 403 kts 269°
2026-05-01 11:15 36.82704 7.37526 38172 ft 403 kts 269°
2026-05-01 11:16 36.82611 7.30541 38171 ft 403 kts 269°
2026-05-01 11:16 36.82514 7.23604 38170 ft 402 kts 269°
2026-05-01 11:17 36.82413 7.16644 38167 ft 402 kts 269°
2026-05-01 11:17 36.82307 7.09641 38168 ft 402 kts 269°
2026-05-01 11:18 36.82197 7.02663 38166 ft 402 kts 269°
2026-05-01 11:18 36.82084 6.95720 38172 ft 402 kts 269°
2026-05-01 11:19 36.81966 6.88736 38168 ft 403 kts 269°
2026-05-01 11:19 36.81844 6.81746 38173 ft 403 kts 268°
2026-05-01 11:20 36.81719 6.74804 38170 ft 403 kts 268°
2026-05-01 11:20 36.81588 6.67809 38169 ft 403 kts 268°
2026-05-01 11:21 36.81454 6.60804 38155 ft 404 kts 268°
2026-05-01 11:21 36.81315 6.53796 38162 ft 404 kts 268°
2026-05-01 11:22 36.81246 6.46782 38156 ft 404 kts 270°
2026-05-01 11:22 36.81308 6.39819 38161 ft 404 kts 270°
2026-05-01 11:23 36.81371 6.32806 38161 ft 405 kts 270°
2026-05-01 11:23 36.81414 6.25802 38160 ft 405 kts 270°
2026-05-01 11:24 36.81443 6.18770 38165 ft 406 kts 269°
2026-05-01 11:25 36.81476 6.08198 38155 ft 406 kts 269°
2026-05-01 11:25 36.81499 5.97672 38158 ft 407 kts 269°
2026-05-01 11:26 36.81513 5.87082 38158 ft 407 kts 269°
2026-05-01 11:27 36.81517 5.80029 38163 ft 407 kts 269°
2026-05-01 11:27 36.81517 5.72969 38159 ft 407 kts 269°
2026-05-01 11:28 36.81512 5.65954 38149 ft 407 kts 269°
2026-05-01 11:28 36.81504 5.58859 37768 ft 411 kts 269°
2026-05-01 11:29 36.81491 5.51751 37238 ft 409 kts 269°
2026-05-01 11:29 36.81483 5.48200 36981 ft 410 kts 269°
2026-05-01 11:29 36.81464 5.41055 36472 ft 413 kts 268°
2026-05-01 11:30 36.81453 5.37516 36225 ft 414 kts 268°
2026-05-01 11:30 36.81440 5.33920 35974 ft 415 kts 268°
2026-05-01 11:30 36.81427 5.30309 35728 ft 416 kts 268°
2026-05-01 11:30 36.81412 5.26686 35487 ft 418 kts 268°
2026-05-01 11:31 36.81397 5.23060 35247 ft 419 kts 268°
2026-05-01 11:31 36.81380 5.19418 35008 ft 420 kts 268°
2026-05-01 11:31 36.81361 5.15763 34768 ft 422 kts 268°
2026-05-01 11:31 36.81342 5.12101 34535 ft 423 kts 268°
2026-05-01 11:32 36.81322 5.08473 34303 ft 424 kts 268°
2026-05-01 11:32 36.81300 5.04785 34059 ft 426 kts 268°
2026-05-01 11:32 36.81277 5.01092 33477 ft 426 kts 268°
2026-05-01 11:32 36.81254 4.97401 32858 ft 425 kts 268°
2026-05-01 11:33 36.81229 4.93706 32275 ft 424 kts 268°
2026-05-01 11:33 36.81203 4.90051 31781 ft 420 kts 268°
2026-05-01 11:33 36.81177 4.86416 31301 ft 417 kts 268°
2026-05-01 11:33 36.81149 4.82812 30824 ft 415 kts 268°
2026-05-01 11:34 36.81130 4.80426 30478 ft 413 kts 268°
2026-05-01 11:34 36.81091 4.75699 29795 ft 410 kts 268°
2026-05-01 11:34 36.81061 4.72166 29263 ft 407 kts 268°
2026-05-01 11:34 36.81029 4.68644 28761 ft 407 kts 268°
2026-05-01 11:35 36.80996 4.65106 28255 ft 405 kts 268°
2026-05-01 11:35 36.80963 4.61610 27770 ft 401 kts 268°
2026-05-01 11:35 36.80929 4.58142 27283 ft 398 kts 268°
2026-05-01 11:35 36.80895 4.54707 26813 ft 394 kts 268°
2026-05-01 11:36 36.80872 4.52452 26500 ft 392 kts 268°
2026-05-01 11:36 36.80835 4.49033 26044 ft 394 kts 268°
2026-05-01 11:36 36.80786 4.44526 25409 ft 390 kts 268°
2026-05-01 11:36 36.80748 4.41154 24958 ft 387 kts 268°
2026-05-01 11:37 36.80710 4.37805 24502 ft 385 kts 268°
2026-05-01 11:37 36.80684 4.35555 24183 ft 384 kts 268°
2026-05-01 11:37 36.80644 4.32278 23736 ft 382 kts 268°
2026-05-01 11:37 36.80604 4.28973 23189 ft 380 kts 268°
2026-05-01 11:38 36.80563 4.25690 22702 ft 377 kts 268°
2026-05-01 11:38 36.80521 4.22431 22244 ft 374 kts 268°
2026-05-01 11:38 36.80479 4.19211 21812 ft 370 kts 268°
2026-05-01 11:38 36.80423 4.14980 21223 ft 366 kts 268°
2026-05-01 11:39 36.80394 4.12838 20929 ft 365 kts 268°
2026-05-01 11:39 36.80350 4.09683 20496 ft 362 kts 268°
2026-05-01 11:39 36.80306 4.06589 20073 ft 361 kts 268°
2026-05-01 11:39 36.80261 4.03455 19653 ft 364 kts 268°
2026-05-01 11:40 36.80214 4.00268 19225 ft 369 kts 269°
2026-05-01 11:40 36.80166 3.97084 18787 ft 366 kts 269°
2026-05-01 11:40 36.80118 3.93911 18308 ft 365 kts 269°
2026-05-01 11:40 36.80070 3.90762 17824 ft 360 kts 269°
2026-05-01 11:41 36.80023 3.87672 17376 ft 353 kts 269°
2026-05-01 11:41 36.80058 3.84624 16895 ft 351 kts 271°
2026-05-01 11:41 36.80142 3.81622 16415 ft 351 kts 272°
2026-05-01 11:41 36.80234 3.78579 15896 ft 352 kts 272°
2026-05-01 11:42 36.80325 3.75524 15406 ft 352 kts 272°
2026-05-01 11:42 36.80417 3.72484 14998 ft 350 kts 272°
2026-05-01 11:42 36.80508 3.69457 14572 ft 348 kts 272°
2026-05-01 11:42 36.80602 3.66438 14139 ft 348 kts 272°
2026-05-01 11:43 36.80697 3.63429 13683 ft 347 kts 272°
2026-05-01 11:43 36.80792 3.60426 13255 ft 344 kts 272°
2026-05-01 11:43 36.80874 3.57827 12913 ft 342 kts 272°
2026-05-01 11:44 36.81060 3.51954 12114 ft 336 kts 272°
2026-05-01 11:44 36.81152 3.49045 11704 ft 335 kts 272°
2026-05-01 11:44 36.81244 3.46150 11323 ft 332 kts 272°
2026-05-01 11:44 36.81275 3.45185 11191 ft 331 kts 272°
2026-05-01 11:45 36.81426 3.40452 10736 ft 321 kts 272°
2026-05-01 11:45 36.81514 3.37718 10660 ft 309 kts 272°
2026-05-01 11:45 36.81598 3.35121 10587 ft 298 kts 272°
2026-05-01 11:45 36.81680 3.32571 10411 ft 292 kts 272°
2026-05-01 11:46 36.81761 3.30048 10116 ft 290 kts 272°
2026-05-01 11:46 36.81841 3.27533 9770 ft 290 kts 272°
2026-05-01 11:46 36.81918 3.25019 9433 ft 289 kts 272°
2026-05-01 11:46 36.81992 3.22514 9115 ft 288 kts 272°
2026-05-01 11:47 36.82062 3.20024 8760 ft 285 kts 272°
2026-05-01 11:47 36.82127 3.17557 8269 ft 285 kts 272°
2026-05-01 11:47 36.82187 3.15120 7779 ft 285 kts 272°
2026-05-01 11:47 36.82244 3.12664 7338 ft 282 kts 272°
2026-05-01 11:48 36.82297 3.10229 6870 ft 280 kts 272°
2026-05-01 11:48 36.82347 3.07801 6398 ft 279 kts 272°
2026-05-01 11:48 36.82236 3.05398 5908 ft 277 kts 257°
2026-05-01 11:48 36.81704 3.03096 5508 ft 273 kts 252°
2026-05-01 11:49 36.81131 3.00917 5400 ft 257 kts 252°
2026-05-01 11:49 36.80579 2.98860 5280 ft 245 kts 252°
2026-05-01 11:49 36.80011 2.96871 4972 ft 241 kts 244°
2026-05-01 11:49 36.79062 2.95180 4734 ft 240 kts 232°
2026-05-01 11:50 36.78034 2.93566 4505 ft 238 kts 232°
2026-05-01 11:50 36.77007 2.91955 4233 ft 233 kts 232°
2026-05-01 11:50 36.76008 2.90405 3974 ft 227 kts 227°
2026-05-01 11:50 36.74709 2.89396 3794 ft 217 kts 192°
2026-05-01 11:51 36.73261 2.89194 3738 ft 203 kts 182°
2026-05-01 11:51 36.71882 2.89190 3642 ft 197 kts 167°
2026-05-01 11:51 36.70732 2.89992 3534 ft 194 kts 129°
2026-05-01 11:51 36.70137 2.91504 3497 ft 194 kts 96°
2026-05-01 11:52 36.69973 2.93135 3491 ft 191 kts 97°
2026-05-01 11:52 36.69811 2.94768 3461 ft 190 kts 93°
2026-05-01 11:52 36.69725 2.96439 3276 ft 196 kts 91°
2026-05-01 11:52 36.69672 2.98140 3016 ft 196 kts 91°
2026-05-01 11:53 36.69629 2.99828 2754 ft 193 kts 90°
2026-05-01 11:53 36.69587 3.01487 2498 ft 190 kts 90°
2026-05-01 11:53 36.69546 3.03093 2269 ft 181 kts 90°
2026-05-01 11:53 36.69509 3.04615 2016 ft 171 kts 90°
2026-05-01 11:54 36.69474 3.06039 1798 ft 163 kts 90°
2026-05-01 11:54 36.69439 3.07453 1633 ft 161 kts 90°
2026-05-01 11:54 36.69404 3.08843 1373 ft 161 kts 91°
2026-05-01 11:54 36.69371 3.10229 1158 ft 160 kts 91°
2026-05-01 11:55 36.69338 3.11597 933 ft 157 kts 90°
2026-05-01 11:55 36.69305 3.12966 746 ft 159 kts 90°
2026-05-01 11:55 36.69271 3.14332 546 ft 158 kts 90°
2026-05-01 11:55 36.69241 3.15720 349 ft 162 kts 90°
2026-05-01 11:56 36.69207 3.17083 120 ft 158 kts 89°
2026-05-01 11:56 36.69175 3.18360 68 ft 123 kts 91°
2026-05-01 11:56 36.69156 3.19161 75 ft 63 kts 91°
2026-05-01 11:56 36.69148 3.19625 65 ft 45 kts 88°
2026-05-01 11:57 36.69221 3.19916 64 ft 27 kts 63°
2026-05-01 11:57 36.69291 3.20104 66 ft 22 kts 76°
2026-05-01 11:57 36.69302 3.20268 70 ft 9 kts 68°
2026-05-01 11:57 36.69365 3.20289 69 ft 11 kts 357°
2026-05-01 11:58 36.69436 3.20282 69 ft 10 kts 322°
2026-05-01 11:58 36.69449 3.20201 65 ft 10 kts 270°
2026-05-01 11:58 36.69455 3.20035 69 ft 10 kts 273°
2026-05-01 11:59 36.69503 3.19984 69 ft 11 kts 359°
2026-05-01 11:59 36.69572 3.19985 66 ft 9 kts
2026-05-01 11:59 36.69627 3.19987 69 ft 7 kts
2026-05-01 12:00 36.69699 3.20015 66 ft 7 kts 77°
2026-05-01 12:00 36.69701 3.20081 69 ft 8 kts 90°
2026-05-01 12:00 36.69700 3.20108 69 ft 0 kts 90°